Weather History for Leadville, CO

Change the Weather History Date:

Saturday, October 1, 2011

  Actual Average Record
Temperature  
Mean Temperature 49 °F -  
Max Temperature 64 °F 55 °F 68 °F (2010)
Min Temperature 34 °F 27 °F 13 °F (1985)
Degree Days  
Heating Degree Days 16 24  
Month to date heating degree days 16 24  
Since 1 July heating degree days 1081 1322  
Cooling Degree Days 0 0  
Month to date cooling degree days 0 0  
Year to date cooling degree days 0 0  
Moisture  
Dew Point 30 °F    
Average Humidity 51    
Maximum Humidity 76    
Minimum Humidity 25    
Precipitation  
Precipitation 0.00 in 0.03 in 0.49 in (1998)
Month to date precipitation 0.00 0.03  
Year to date precipitation 12.19 10.06  
Snow  
Snow 0.00 in - - ()
Month to date snowfall 0.0  
Snow Depth 0.00 in    
Sea Level Pressure  
Sea Level Pressure 30.10 in    
Wind  
Wind Speed 5 mph (ENE)    
Max Wind Speed 16 mph    
Max Gust Speed 21 mph    
Visibility 10 miles    
Events      
T = Trace of Precipitation, MM = Missing Value Source: NWS Daily Summary

Daily Weather History Graph

Daily Weather History Graph

Search for Another Location

Airport:

Trip Planner

Search our weather history database for the weather conditions in past years. The results will help you decide how hot, cold, wet, or windy it might be!

Date:

Astronomy

Oct. 01, 2011 Rise Set
Actual Time 7:01 AM MDT 6:48 PM MDT
Civil Twilight 6:34 AM MDT 7:14 PM MDT
Nautical Twilight 6:03 AM MDT 7:45 PM MDT
Astronomical Twilight 5:31 AM MDT 8:17 PM MDT
Moon 12:07 PM MDT (10/1) 9:50 PM MDT (10/1)
Length of Visible Light 12h 40m
Length of Day
11h 47m
Waxing Crescent, 25% of the Moon is Illuminated
Oct 1
Waxing Crescent
Oct 3
First Quarter
Oct 11
Full
Oct 19
Last Quarter
Oct 26
New

Hourly Weather History & Observations

Time (MDT) Temp. Windchill Dew Point Humidity Pressure Visibility Wind Dir Wind Speed Gust Speed Precip Events Conditions
12:53 AM 39.0 °F 34.8 °F 30.0 °F 70% 30.08 in 10.0 mi ENE 5.8 mph - N/A   Partly Cloudy
1:53 AM 39.0 °F 36.8 °F 30.0 °F 70% 30.07 in 10.0 mi East 3.5 mph - N/A   Clear
2:53 AM 36.0 °F - 28.9 °F 76% 30.11 in 10.0 mi Calm Calm - N/A   Mostly Cloudy
3:53 AM 36.0 °F - 28.9 °F 76% 30.10 in 10.0 mi Calm Calm - N/A   Overcast
4:53 AM 37.9 °F 34.4 °F 30.0 °F 73% 30.09 in 10.0 mi East 4.6 mph - N/A   Overcast
5:53 AM 39.0 °F - 30.9 °F 73% 30.09 in 10.0 mi Calm Calm - N/A   Overcast
6:53 AM 36.0 °F 33.3 °F 28.9 °F 76% 30.16 in 10.0 mi East 3.5 mph - N/A   Clear
7:53 AM 39.0 °F 35.7 °F 28.9 °F 67% 30.15 in 10.0 mi NNE 4.6 mph - N/A   Clear
8:53 AM 48.9 °F - 30.9 °F 50% 30.12 in 10.0 mi Calm Calm - N/A   Clear
9:53 AM 53.1 °F - 30.0 °F 41% 30.10 in 10.0 mi Calm Calm - N/A   Clear
10:53 AM 57.9 °F - 28.0 °F 32% 30.08 in 10.0 mi Calm Calm - N/A   Clear
11:53 AM 62.1 °F - 27.0 °F 26% 30.02 in 10.0 mi SSE 4.6 mph - N/A   Clear
12:53 PM 61.0 °F - 26.1 °F 26% 30.05 in 10.0 mi ENE 4.6 mph - N/A   Mostly Cloudy
1:53 PM 57.9 °F - 28.0 °F 32% 30.04 in 10.0 mi NE 10.4 mph - N/A   Overcast
2:53 PM 55.0 °F - 28.9 °F 37% 30.10 in 10.0 mi NE 13.8 mph 18.4 mph N/A   Mostly Cloudy
3:53 PM 52.0 °F - 33.1 °F 49% 30.15 in 10.0 mi North 6.9 mph - N/A   Overcast
4:53 PM 52.0 °F - 33.1 °F 49% 30.11 in 10.0 mi NE 8.1 mph - N/A   Clear
5:53 PM 52.0 °F - 32.0 °F 47% 30.09 in 10.0 mi NE 11.5 mph - N/A   Scattered Clouds
6:53 PM 50.0 °F - 33.1 °F 52% 30.17 in 10.0 mi WSW 4.6 mph - N/A   Overcast
7:53 PM 48.0 °F - 30.9 °F 52% 30.14 in 10.0 mi East 5.8 mph - N/A   Overcast
8:53 PM 46.9 °F - 33.1 °F 59% 30.11 in 10.0 mi ENE 5.8 mph - N/A   Mostly Cloudy
9:53 PM 46.0 °F 42.5 °F 33.1 °F 61% 30.09 in 10.0 mi East 6.9 mph - N/A   Mostly Cloudy
10:53 PM 43.0 °F 41.3 °F 30.9 °F 62% 30.08 in 10.0 mi East 3.5 mph - N/A   Mostly Cloudy
11:53 PM 39.9 °F 35.8 °F 30.9 °F 70% 30.07 in 10.0 mi East 5.8 mph - N/A   Partly Cloudy